Regional Weather Roundup
Issued by NWS

Home | Current Version | Previous Version | Graphics & Text | Print | Product List | Glossary On
Versions: 1 2 3 4 5 6 7 8 9 10 11 12 13 14 15 16 17 18 19 20 21 22 23 24 25 26 27 28 29 30 31 32 33 34 35 36 37 38 39 40 41 42 43 44 45 46 47 48 49 50
000
ASUS43 KOAX 162210
RWRNE

WEATHER ROUNDUP FOR NEBRASKA
NATIONAL WEATHER SERVICE OMAHA NE
500 PM CDT TUE SEP 16 2014

NOTES: SATELLITE DATA IS BEING USED TO AUGMENT CLOUD COVER ABOVE
       12000 FEET.
       "FAIR" INDICATES FEW OR NO CLOUDS BELOW 12,000 FEET WITH NO
       SIGNIFICANT WEATHER AND/OR OBSTRUCTIONS TO VISIBILITY.

  * THESE STATIONS DO NOT REPORT WEATHER SUCH AS RAIN...SNOW OR FOG.

NEZ001>004-019>022-054>056-162300-
NEBRASKA PANHANDLE

CITY           SKY/WX    TMP DP  RH WIND       PRES   REMARKS
SCOTTSBLUFF    SUNNY     87  42  20 W7        30.01F
ALLIANCE         N/A     85  36  17 VRB6      30.01F
CHADRON        SUNNY     85  45  24 VRB3      29.96F
SIDNEY         SUNNY     86  42  21 N13       30.06F
$$

NEZ057>060-069>072-079>082-162300-
SOUTHWEST NEBRASKA

CITY           SKY/WX    TMP DP  RH WIND       PRES   REMARKS
NORTH PLATTE   MOSUNNY   77  58  51 S9        29.98S
IMPERIAL       SUNNY     88  50  27 NW7       29.97F
LEXINGTON      PTSUNNY   72  59  64 S9        30.00F
MCCOOK         MOSUNNY   79  59  50 SE13      29.97F
OGALLALA       MOSUNNY   83  55  36 NW8       29.99S
$$

NEZ005>010-023>029-035>040-094-162300-
NORTH CENTRAL NEBRASKA

CITY           SKY/WX    TMP DP  RH WIND       PRES   REMARKS
VALENTINE      SUNNY     80  55  42 CALM      29.95F
BROKEN BOW     MOSUNNY   70  57  63 S12G20    30.00F
O`NEILL        PTSUNNY   71  58  62 S16G22    29.99S
ORD            CLOUDY    67  56  67 S10       30.00F
THEDFORD       SUNNY     81  58  45 SW9       29.97F
$$

NEZ041-046>049-061>064-073>077-083>087-162300-
SOUTH CENTRAL NEBRASKA

CITY           SKY/WX    TMP DP  RH WIND       PRES   REMARKS
GRAND ISLAND   CLOUDY    68  54  60 S13       30.03F
HASTINGS       CLOUDY    66  51  58 S9        30.03F
HEBRON         PTSUNNY   72  47  40 S7        30.03F
HOLDREGE       CLOUDY    69  55  61 S13G21    30.02F
KEARNEY *      CLOUDY    66  55  68 S12       30.03F
YORK           CLOUDY    68  50  52 S8        30.03F
$$

NEZ011>018-030>034-042>045-162300-
NORTHEAST NEBRASKA

CITY           SKY/WX    TMP DP  RH WIND       PRES   REMARKS
NORFOLK        SUNNY     70  49  47 S12       30.02F
ALBION         CLOUDY    68  53  58 S10       30.01F
COLUMBUS *     SUNNY     70  48  46 SE10      30.04F
TEKAMAH        SUNNY     70  48  45 S8G18     30.05F
WAYNE          MOSUNNY   70  51  50 S12       30.03F
$$

NEZ050>053-065>068-078-088>093-162300-
SOUTHEAST NEBRASKA

CITY           SKY/WX    TMP DP  RH WIND       PRES   REMARKS
LINCOLN        SUNNY     72  48  42 S9        30.04F
OMAHA EPPLEY   MOSUNNY   69  48  47 S9        30.06F
BEATRICE       CLOUDY    70  47  43 S9        30.04F
FALLS CITY     SUNNY     70  50  49 SE6       30.06F
NEBRASKA CITY  SUNNY     69  39  33 SE8       30.05F
PLATTSMOUTH    SUNNY     68  46  45 SE7       30.06F
$$

NEZ044-045-051>053-067-162300-
OMAHA AREA

CITY           SKY/WX    TMP DP  RH WIND       PRES   REMARKS
OMAHA EPPLEY   MOSUNNY   69  48  47 S9        30.06F
MILLARD        SUNNY     69  49  48 S5        30.05F
OFFUTT AFB     SUNNY     68  53  58 SE7       30.05F
PLATTSMOUTH    SUNNY     68  46  45 SE7       30.06F
WAHOO          FAIR      71  45  38 S7        30.04F
$$



USA.gov is the U.S. government's official web portal to all federal, state and local government web resources and services.